TimeEDT,TemperatureF,Dew PointF,Humidity,Sea Level PressureIn,VisibilityMPH,Wind Direction,Wind SpeedMPH,Gust SpeedMPH,PrecipitationIn,Events,Conditions,WindDirDegrees,DateUTC
12:55 AM,52.0,36.0,54,29.83,10.0,West,9.2,-,N/A,,Partly Cloudy,270,2013-10-18 04:55:00
1:55 AM,53.1,37.0,55,29.84,10.0,West,9.2,-,N/A,,Mostly Cloudy,280,2013-10-18 05:55:00
2:55 AM,52.0,37.0,57,29.84,10.0,West,8.1,-,N/A,,Mostly Cloudy,280,2013-10-18 06:55:00
3:55 AM,52.0,36.0,54,29.83,10.0,West,5.8,-,N/A,,Partly Cloudy,260,2013-10-18 07:55:00
4:55 AM,52.0,37.9,59,29.82,10.0,WSW,4.6,-,N/A,,Scattered Clouds,250,2013-10-18 08:55:00
5:55 AM,51.1,37.9,61,29.83,10.0,WSW,4.6,-,N/A,,Mostly Cloudy,240,2013-10-18 09:55:00
6:55 AM,52.0,39.0,61,29.83,10.0,SW,6.9,-,N/A,,Scattered Clouds,230,2013-10-18 10:55:00
7:55 AM,51.1,37.9,61,29.83,10.0,SW,4.6,-,N/A,,Partly Cloudy,220,2013-10-18 11:55:00
8:55 AM,42.1,37.9,85,29.84,10.0,ESE,6.9,-,N/A,,Partly Cloudy,110,2013-10-18 12:55:00
9:55 AM,50.0,42.1,74,29.84,10.0,ESE,9.2,-,N/A,,Mostly Cloudy,120,2013-10-18 13:55:00
10:55 AM,60.1,43.0,53,29.84,10.0,WSW,15.0,19.6,N/A,,Scattered Clouds,240,2013-10-18 14:55:00
11:55 AM,57.0,45.0,64,29.85,10.0,WSW,13.8,21.9,N/A,,Scattered Clouds,250,2013-10-18 15:55:00
12:55 PM,57.9,46.0,65,29.85,10.0,West,16.1,-,N/A,,Scattered Clouds,260,2013-10-18 16:55:00
1:33 PM,55.4,44.6,67,29.86,10.0,West,16.1,-,N/A,,Overcast,260,2013-10-18 17:33:00
1:55 PM,55.0,45.0,69,29.86,10.0,West,12.7,23.0,N/A,,Overcast,270,2013-10-18 17:55:00
2:52 PM,55.4,44.6,67,29.85,10.0,WSW,8.1,19.6,N/A,,Overcast,250,2013-10-18 18:52:00
2:55 PM,55.0,44.1,67,29.85,10.0,WSW,11.5,-,N/A,,Overcast,250,2013-10-18 18:55:00
3:29 PM,53.6,42.8,67,29.85,10.0,WSW,12.7,17.3,N/A,,Overcast,250,2013-10-18 19:29:00
3:55 PM,53.1,43.0,69,29.86,10.0,WSW,12.7,-,N/A,,Overcast,250,2013-10-18 19:55:00
4:03 PM,53.6,42.8,67,29.85,10.0,West,15.0,23.0,N/A,,Overcast,260,2013-10-18 20:03:00
4:22 PM,53.6,42.8,67,29.86,10.0,WSW,12.7,-,N/A,,Overcast,250,2013-10-18 20:22:00
4:30 PM,53.6,42.8,67,29.86,10.0,West,13.8,20.7,N/A,,Overcast,260,2013-10-18 20:30:00
4:55 PM,53.1,39.9,61,29.86,10.0,WSW,11.5,-,N/A,,Overcast,240,2013-10-18 20:55:00
5:55 PM,52.0,41.0,66,29.87,10.0,West,10.4,-,N/A,,Overcast,260,2013-10-18 21:55:00
6:55 PM,52.0,39.9,63,29.88,10.0,West,11.5,-,N/A,,Overcast,260,2013-10-18 22:55:00
7:55 PM,53.1,39.9,61,29.88,10.0,WSW,11.5,-,N/A,,Overcast,250,2013-10-18 23:55:00
8:12 PM,51.8,39.2,62,29.88,10.0,West,13.8,21.9,N/A,,Overcast,270,2013-10-19 00:12:00
8:26 PM,51.8,39.2,62,29.88,10.0,West,12.7,18.4,N/A,,Overcast,260,2013-10-19 00:26:00
8:55 PM,52.0,41.0,66,29.90,10.0,West,11.5,21.9,N/A,,Overcast,280,2013-10-19 00:55:00
9:29 PM,51.8,39.2,62,29.89,10.0,West,13.8,21.9,N/A,,Overcast,270,2013-10-19 01:29:00
9:55 PM,51.1,39.0,63,29.90,10.0,West,10.4,21.9,N/A,,Overcast,270,2013-10-19 01:55:00
10:55 PM,50.0,37.9,63,29.90,10.0,West,10.4,-,N/A,,Overcast,270,2013-10-19 02:55:00
11:51 PM,50.0,37.4,62,29.88,10.0,West,6.9,18.4,N/A,,Overcast,260,2013-10-19 03:51:00
11:55 PM,50.0,39.0,66,29.88,10.0,West,9.2,-,N/A,,Overcast,260,2013-10-19 03:55:00